CZ-3A DEB, 35549

Orbit data source: Space-Track

CZ-3A DEB, 35549 is space debris in HEO originally from a launch on Fri, 02 Feb 2007 UTC launched from the Xichang Space Center, China (XSC). Debris objects in space refer to the collection of defunct objects orbiting the Earth. Examples of debris include non-operational satellites, rocket bodies, and fragments generated from explosions, collisions, or faulty payload assembly.

Loading next visibility...
Identifier
35549, 2007-003H
Orbit
HEO
Country
Flag of CNCN / PRC
Related business
Manufacturer
Unknown
Mission
Spacecraft
Bus & Motor
Unknown
Mass
Unknown
Launch date (UTC)
2007-02-02 (19 years ago)
Launch vehicle
Unknown
Launch site
Xichang Space Center, China (XSC)
Object type
Payload
Rocket body
Debris
Shape & HBR
Unknown shape, 0.3 m
Radar Cross Section
Medium (>0.1 m² and <1 m²)

Expand to show TLE details & history
Last TLE update: 1 day ago

TLE from 1 day ago
0 CZ-3A DEB
1 35549U 07003H   26035.00372338  .00044843  00000-0  12497-1 0  9995
2 35549  24.0236 207.3605 5220088 201.8978 123.5119  5.22078359164888
Epoch: 2026-02-04T00:05Z
TLE epoch observation values (Epoch: 2026-02-04T00:05:21.700Z)
Latitude
-0.00005°
Longitude
71.82502°
Altitude
13,420.897 km
Speed
3.445 km/s
True Right ascension
13h 49m 22s
True Declination
0° 00' 00"
Sunlit
Object was in daylight at epoch
Visualization orbit readout
Latitude
Unknown
Longitude
Unknown
Altitude
Unknown
Speed
Unknown
Apparent Right ascension
Unknown
Apparent Declination
Unknown
Sunlit
N/A
Visualization observer readout
Local Sidereal Time
13:32:57
Azimuth
Unknown
Elevation
Unknown
Doppler factor
Unknown
Orbital elements
Apogee altitude
14,990.642 km
Perigee altitude
332.789 km
Semi-major axis
14,039.853 km
Eccentricity
0.52201
Inclination
24.0236°
RAAN
207.3605°
Arg. of periapsis
201.8978°
True anomaly
158.12474°
Mean anomaly
123.5119°
Eccentric anomaly
141.94732°
Mean motion
1.30467 °/min
Orbital period
275.93 mins
BSTAR
0.012497
Loading maneuver chart data...
Computing Atmospheric mass density...
Loading historical data...
Loading historical data...
Loading historical data...
Loading historical data...
Loading historical data...
Loading historical data...
Loading historical data...

Documentation

Showing up to 5 results
|